This is the latest recevied weather packets stored in our database for station/object SP2ARK-10. If no packets are shown the sender has not sent any weather packets the latest 10 day(s).
| Time | Temp. | Humidity | Pressure | Rain* | Wind** | Luminosity | Snow |
|---|---|---|---|---|---|---|---|
| 1777543290 | 11.11° C | 55% | 1036.1 hPa | - | - | - | - |
| 1777542389 | 11.11° C | 56% | 1036.1 hPa | - | - | - | - |
| 1777541492 | 10° C | 57% | 1036.2 hPa | - | - | - | - |
| 1777540588 | 9.44° C | 57% | 1036.4 hPa | - | - | - | - |
| 1777539688 | 9.44° C | 57% | 1036.5 hPa | - | - | - | - |
| 1777538787 | 8.33° C | 58% | 1036.7 hPa | - | - | - | - |
| 1777537887 | 8.33° C | 58% | 1036.8 hPa | - | - | - | - |
| 1777536986 | 7.78° C | 58% | 1037.1 hPa | - | - | - | - |
| 1777536147 | 7.78° C | 57% | 1037.1 hPa | - | - | - | - |
| 1777536085 | 7.78° C | 57% | 1037.1 hPa | - | - | - | - |
| 1777535184 | 7.22° C | 58% | 1037.2 hPa | - | - | - | - |
| 1777534283 | 6.67° C | 59% | 1037.1 hPa | - | - | - | - |
| 1777533382 | 6.11° C | 62% | 1037.2 hPa | - | - | - | - |
| 1777532481 | 5.56° C | 63% | 1037.3 hPa | - | - | - | - |
| 1777531581 | 5.56° C | 63% | 1037.4 hPa | - | - | - | - |
| 1777530680 | 5.56° C | 66% | 1037.3 hPa | - | - | - | - |
| 1777529780 | 5° C | 67% | 1037.2 hPa | - | - | - | - |
| 1777528879 | 5° C | 68% | 1037.2 hPa | - | - | - | - |
| 1777527978 | 4.44° C | 70% | 1037.2 hPa | - | - | - | - |
| 1777527078 | 4.44° C | 70% | 1037 hPa | - | - | - | - |
| 1777526177 | 3.89° C | 71% | 1037.2 hPa | - | - | - | - |
| 1777525276 | 3.89° C | 69% | 1037.2 hPa | - | - | - | - |
| 1777524375 | 3.33° C | 68% | 1037.1 hPa | - | - | - | - |
| 1777523474 | 3.33° C | 68% | 1037.2 hPa | - | - | - | - |
| 1777522573 | 3.33° C | 67% | 1037.3 hPa | - | - | - | - |
* Rain since midnight (hover to see other rain measurements)
** Current wind speed in m/s (hover to see current wind gust speed)